TimeEDT,TemperatureF,Dew PointF,Humidity,Sea Level PressureIn,VisibilityMPH,Wind Direction,Wind SpeedMPH,Gust SpeedMPH,PrecipitationIn,Events,Conditions,WindDirDegrees,DateUTC
12:15 AM,61.7,59.9,94,29.99,10.0,SW,8.1,-,N/A,Rain,Rain,230,2012-10-05 04:15:00
12:35 AM,61.0,58.5,91,30.00,10.0,SW,12.7,18.4,N/A,,Overcast,230,2012-10-05 04:35:00
12:55 AM,60.1,57.6,91,30.00,10.0,SW,11.5,-,N/A,Rain,Light Rain,230,2012-10-05 04:55:00
1:15 AM,59.4,57.4,93,30.01,10.0,SW,9.2,-,N/A,,Overcast,230,2012-10-05 05:15:00
1:35 AM,59.0,56.7,92,30.01,10.0,SW,9.2,-,N/A,,Overcast,230,2012-10-05 05:35:00
1:55 AM,58.5,56.5,93,30.01,10.0,WSW,8.1,-,N/A,,Overcast,240,2012-10-05 05:55:00
2:15 AM,58.5,56.3,93,30.01,10.0,WSW,6.9,-,N/A,,Overcast,240,2012-10-05 06:15:00
2:36 AM,58.3,55.4,90,30.02,10.0,WSW,8.1,-,N/A,,Overcast,240,2012-10-05 06:36:00
2:55 AM,58.1,53.8,86,30.01,10.0,WSW,9.2,-,N/A,,Overcast,240,2012-10-05 06:55:00
3:15 AM,57.0,52.3,84,30.01,10.0,WSW,9.2,-,N/A,,Scattered Clouds,240,2012-10-05 07:15:00
3:36 AM,56.1,51.8,85,30.01,10.0,SW,5.8,-,N/A,,Clear,230,2012-10-05 07:36:00
3:55 AM,55.4,52.0,88,30.00,10.0,WSW,8.1,-,N/A,,Clear,240,2012-10-05 07:55:00
4:15 AM,55.0,51.4,88,30.01,10.0,WSW,6.9,-,N/A,,Scattered Clouds,240,2012-10-05 08:15:00
4:35 AM,54.7,51.3,88,30.01,10.0,WSW,9.2,-,N/A,,Scattered Clouds,250,2012-10-05 08:35:00
4:55 AM,54.3,50.9,88,30.03,10.0,WSW,8.1,-,N/A,,Clear,240,2012-10-05 08:55:00
5:15 AM,53.8,50.4,88,30.04,10.0,West,11.5,-,N/A,,Clear,260,2012-10-05 09:15:00
5:35 AM,53.1,48.4,84,30.04,10.0,West,8.1,17.3,N/A,,Clear,260,2012-10-05 09:35:00
5:55 AM,52.2,47.1,83,30.05,10.0,West,10.4,-,N/A,,Clear,260,2012-10-05 09:55:00
6:16 AM,51.3,45.5,81,30.04,10.0,West,8.1,-,N/A,,Clear,270,2012-10-05 10:16:00
6:35 AM,50.9,45.5,82,30.04,10.0,West,6.9,-,N/A,,Clear,260,2012-10-05 10:35:00
6:55 AM,50.5,45.3,82,30.04,10.0,West,9.2,-,N/A,,Clear,280,2012-10-05 10:55:00
7:15 AM,49.8,44.2,81,30.04,10.0,West,6.9,-,N/A,,Clear,260,2012-10-05 11:15:00
7:35 AM,49.3,43.9,82,30.05,10.0,WSW,6.9,-,N/A,,Clear,250,2012-10-05 11:35:00
7:56 AM,49.1,43.7,82,30.06,10.0,West,6.9,-,N/A,,Clear,260,2012-10-05 11:56:00
8:15 AM,48.4,43.3,83,30.05,10.0,WSW,4.6,-,N/A,,Clear,250,2012-10-05 12:15:00
8:35 AM,48.7,43.7,83,30.06,10.0,WSW,6.9,-,N/A,,Clear,250,2012-10-05 12:35:00
8:56 AM,49.5,43.3,79,30.06,10.0,West,8.1,-,N/A,,Clear,260,2012-10-05 12:56:00
9:15 AM,50.0,43.3,78,30.07,10.0,West,9.2,-,N/A,,Scattered Clouds,260,2012-10-05 13:15:00
9:35 AM,50.2,43.7,78,30.07,10.0,West,8.1,-,N/A,,Overcast,260,2012-10-05 13:35:00
9:55 AM,50.9,43.9,77,30.07,10.0,West,10.4,-,N/A,,Overcast,260,2012-10-05 13:55:00
10:15 AM,50.5,43.7,77,30.06,10.0,West,10.4,-,N/A,,Overcast,260,2012-10-05 14:15:00
10:35 AM,51.3,44.2,77,30.06,10.0,West,8.1,-,N/A,,Overcast,260,2012-10-05 14:35:00
10:55 AM,52.3,43.9,73,30.06,10.0,West,10.4,-,N/A,,Overcast,260,2012-10-05 14:55:00
11:15 AM,52.5,43.7,72,30.06,10.0,WSW,8.1,-,N/A,,Mostly Cloudy,240,2012-10-05 15:15:00
11:35 AM,53.2,42.3,66,30.05,10.0,WSW,10.4,16.1,N/A,,Scattered Clouds,240,2012-10-05 15:35:00
11:55 AM,53.6,42.8,67,30.05,10.0,West,8.1,-,N/A,,Scattered Clouds,260,2012-10-05 15:55:00
12:36 PM,54.5,41.7,62,30.04,10.0,WSW,13.8,17.3,N/A,,Scattered Clouds,240,2012-10-05 16:36:00
12:55 PM,55.2,41.7,60,30.04,10.0,WSW,12.7,-,N/A,,Scattered Clouds,250,2012-10-05 16:55:00
1:15 PM,55.6,42.4,61,30.03,10.0,West,9.2,-,N/A,,Mostly Cloudy,260,2012-10-05 17:15:00
1:35 PM,56.5,39.7,54,30.01,10.0,WSW,15.0,19.6,N/A,,Scattered Clouds,240,2012-10-05 17:35:00
1:55 PM,57.4,41.0,54,30.02,10.0,WSW,8.1,18.4,N/A,,Scattered Clouds,240,2012-10-05 17:55:00
2:35 PM,57.2,39.4,51,30.01,10.0,SW,10.4,17.3,N/A,,Scattered Clouds,230,2012-10-05 18:35:00
2:55 PM,56.5,39.2,52,30.00,10.0,WSW,11.5,20.7,N/A,,Clear,250,2012-10-05 18:55:00
3:15 PM,55.9,38.1,51,30.00,10.0,WSW,11.5,18.4,N/A,,Mostly Cloudy,250,2012-10-05 19:15:00
3:35 PM,55.4,39.2,54,29.99,10.0,WSW,10.4,-,N/A,Rain,Light Rain,250,2012-10-05 19:35:00
3:55 PM,54.5,39.2,56,29.99,10.0,WSW,11.5,18.4,N/A,,Light Drizzle,250,2012-10-05 19:55:00
4:15 PM,54.1,38.8,56,29.98,10.0,WSW,10.4,-,N/A,,Overcast,240,2012-10-05 20:15:00
4:35 PM,54.1,37.8,54,29.97,10.0,WSW,10.4,-,N/A,,Overcast,240,2012-10-05 20:35:00
4:55 PM,54.0,38.8,57,29.97,10.0,WSW,10.4,18.4,N/A,,Overcast,240,2012-10-05 20:55:00
5:15 PM,53.6,39.2,58,29.97,10.0,SW,10.4,-,N/A,,Overcast,230,2012-10-05 21:15:00
5:35 PM,53.6,39.9,60,29.97,10.0,SW,6.9,-,N/A,,Overcast,220,2012-10-05 21:35:00
5:56 PM,53.1,40.8,63,29.98,10.0,SW,10.4,-,N/A,,Mostly Cloudy,230,2012-10-05 21:56:00
6:15 PM,52.5,41.0,65,29.98,10.0,WSW,10.4,-,N/A,,Overcast,240,2012-10-05 22:15:00
6:35 PM,52.2,41.2,66,29.98,10.0,SW,8.1,-,N/A,,Overcast,230,2012-10-05 22:35:00
7:15 PM,51.8,40.5,65,29.99,10.0,WSW,9.2,-,N/A,,Overcast,240,2012-10-05 23:15:00
7:35 PM,51.3,39.9,65,29.97,10.0,WSW,6.9,16.1,N/A,,Overcast,240,2012-10-05 23:35:00
7:55 PM,50.9,40.1,67,29.97,10.0,WSW,8.1,-,N/A,,Overcast,240,2012-10-05 23:55:00
8:15 PM,50.9,40.6,68,29.98,10.0,WSW,8.1,-,N/A,,Overcast,240,2012-10-06 00:15:00
8:35 PM,50.4,41.0,70,29.98,10.0,WSW,10.4,-,N/A,,Overcast,240,2012-10-06 00:35:00
8:55 PM,50.2,40.8,70,29.98,10.0,WSW,4.6,9.2,N/A,,Overcast,240,2012-10-06 00:55:00
9:15 PM,50.0,40.5,70,29.97,10.0,WSW,6.9,-,N/A,,Overcast,240,2012-10-06 01:15:00
9:36 PM,49.6,40.3,70,29.97,10.0,SW,6.9,-,N/A,,Overcast,230,2012-10-06 01:36:00
9:55 PM,49.5,40.5,71,29.96,10.0,WSW,6.9,-,N/A,,Overcast,240,2012-10-06 01:55:00
10:15 PM,49.1,40.5,72,29.96,10.0,SW,3.5,-,N/A,,Overcast,220,2012-10-06 02:15:00
10:35 PM,49.1,42.1,77,29.95,10.0,SW,4.6,-,N/A,,Overcast,220,2012-10-06 02:35:00
10:55 PM,48.7,42.3,78,29.94,10.0,SW,6.9,-,N/A,,Overcast,220,2012-10-06 02:55:00
11:35 PM,48.6,42.3,79,29.94,10.0,WSW,8.1,-,N/A,,Overcast,240,2012-10-06 03:35:00
11:55 PM,48.2,42.1,79,29.94,10.0,SW,4.6,-,N/A,,Overcast,230,2012-10-06 03:55:00